Location: Eaton Estates
(41.3089°N, 82.0057°W)
Time: 02:52:15
(UTC+00:00)

ITUPSAT 1 - Visible Passes

Search period start: 29 March 2023 00:00
Search period end: 08 April 2023 00:00
Orbit: 699 x 709 km, 98.5° (Epoch: 28 March)

Date Brightness Start Highest point End Pass type
(mag) Time Alt. Az. Time Alt. Az. Time Alt. Az.
29 Mar ? 02:52:19 10° N 02:54:09 23° N 02:54:09 23° N visible
30 Mar ? 01:58:16 10° NNE 01:59:15 15° NE 01:59:15 15° NE visible
30 Mar ? 03:36:15 10° N 03:38:11 20° NNW 03:38:11 20° NNW visible
31 Mar ? 02:41:14 10° NNE 02:43:16 25° NNE 02:43:16 25° NNE visible
31 Mar ? 04:22:00 10° NW 04:22:12 10° NW 04:22:12 10° NW visible
01 Apr ? 01:47:29 10° NE 01:48:21 14° NE 01:48:21 14° NE visible
01 Apr ? 03:24:57 10° N 03:27:17 24° NNW 03:27:17 24° NNW visible
02 Apr ? 02:30:12 10° NNE 02:32:22 27° NNE 02:32:22 27° NNE visible
02 Apr ? 04:09:47 10° NNW 04:11:18 13° NW 04:11:18 13° NW visible
03 Apr ? 01:36:48 10° NE 01:37:26 13° NE 01:37:26 13° NE visible
03 Apr ? 03:13:43 10° N 03:16:22 29° NNW 03:16:22 29° NNW visible
04 Apr ? 02:19:12 10° NNE 02:21:27 27° NE 02:21:27 27° NE visible
04 Apr ? 03:58:06 10° NNW 04:00:23 17° NW 04:00:23 17° NW visible
05 Apr ? 01:26:17 10° NE 01:26:31 11° ENE 01:26:31 11° ENE visible
05 Apr ? 03:02:31 10° N 03:05:26 35° NNW 03:05:26 35° NNW visible
06 Apr ? 02:08:14 10° NNE 02:10:30 25° NE 02:10:30 25° NE visible
06 Apr ? 03:46:37 10° NNW 03:49:26 21° NW 03:49:26 21° NW visible
07 Apr ? 02:51:22 10° N 02:54:29 40° N 02:54:29 40° N visible
